Find Aoi

NORAD ID: 43679 Int'l Des: 2018-084 Owner: SHIZ Country: J operational
LEOCIRCULARRETROGRADE

Live Position

Loading 3D Globe...

About Aoi

Description loading...

Upcoming Passes

Passes for default location (London). Set your location on the main map for personalized predictions.

Altitude History

Loading altitude history...

Two-Line Element Set

1 43679U 18084J 26104.54005663 .00003320 00000-0 17503-3 0 9999
2 43679 98.0580 314.5983 0002923 50.0682 310.0805 15.16350702407829
Epoch: Apr 14, 2026 • Age: 9 hours

Current Status

Altitude 520.1 km
Velocity 7.60 km/s
Sub-Earth Point 14.39°N, 30.13°W
Launch Date Oct 29, 2018
Age 7.4 years
Type other

Technical Details

Classification Payload
Mass 1.40 kg
Dry Mass 1.40 kg
Total Mass 1.40 kg
Length 0.10 m
Diameter 0.10 m
Span 0.10 m
Shape Box
Manufacturer SHIZ
Bus Type Cubesat 1U
Phase Status In Orbit
Owner/State SHIZ/J

Most Searched